TimeCDT,TemperatureF,Dew PointF,Humidity,Sea Level PressureIn,VisibilityMPH,Wind Direction,Wind SpeedMPH,Gust SpeedMPH,PrecipitationIn,Events,Conditions,WindDirDegrees,DateUTC
12:54 AM,26.1,19.9,78,30.01,10.0,NW,4.6,-,N/A,,Clear,310,2013-04-14 05:54:00
1:54 AM,25.0,19.9,81,30.02,10.0,NNW,3.5,-,N/A,,Clear,330,2013-04-14 06:54:00
2:54 AM,24.1,19.9,84,30.00,10.0,Calm,Calm,-,N/A,,Clear,0,2013-04-14 07:54:00
3:54 AM,23.0,19.9,88,29.99,10.0,Calm,Calm,-,N/A,,Clear,0,2013-04-14 08:54:00
4:54 AM,21.9,19.0,89,30.01,10.0,Calm,Calm,-,N/A,,Clear,0,2013-04-14 09:54:00
5:54 AM,21.0,18.0,88,30.02,10.0,Calm,Calm,-,N/A,,Partly Cloudy,0,2013-04-14 10:54:00
7:54 AM,27.0,21.0,78,30.01,10.0,East,6.9,-,N/A,,Mostly Cloudy,100,2013-04-14 12:54:00
8:54 AM,28.9,21.0,72,29.99,10.0,East,8.1,-,N/A,,Overcast,100,2013-04-14 13:54:00
9:54 AM,32.0,21.0,64,29.96,10.0,East,10.4,-,N/A,,Scattered Clouds,100,2013-04-14 14:54:00
10:54 AM,32.0,21.0,64,29.96,10.0,East,11.5,-,N/A,,Overcast,90,2013-04-14 15:54:00
11:28 AM,32.0,21.2,64,29.93,1.8,ESE,15.0,23.0,0.00,Snow,Light Snow,120,2013-04-14 16:28:00
11:52 AM,28.4,26.6,93,29.93,0.2,ESE,11.5,-,0.01,Fog-Snow,Snow,110,2013-04-14 16:52:00
11:54 AM,28.9,26.1,89,29.99,0.2,ESE,11.5,-,0.01,Fog-Snow,Snow,110,2013-04-14 16:54:00
12:06 PM,28.4,26.6,93,29.93,0.2,ESE,10.4,-,0.01,Fog-Snow,Snow,110,2013-04-14 17:06:00
12:54 PM,28.9,27.0,92,29.97,0.2,ESE,9.2,18.4,0.04,Fog-Snow,Snow,110,2013-04-14 17:54:00
1:54 PM,28.9,27.0,92,29.93,0.5,East,16.1,25.3,0.04,Fog-Snow,Snow,100,2013-04-14 18:54:00
2:04 PM,28.4,26.6,93,29.86,0.5,East,13.8,24.2,0.02,Fog-Snow,Snow,100,2013-04-14 19:04:00
2:18 PM,30.2,26.6,86,29.85,2.5,East,15.0,21.9,0.03,Snow,Light Snow,90,2013-04-14 19:18:00
2:25 PM,30.2,26.6,86,29.84,4.0,East,16.1,23.0,0.04,,Overcast,90,2013-04-14 19:25:00
2:35 PM,30.2,26.6,86,29.83,4.0,East,15.0,24.2,0.06,,Overcast,90,2013-04-14 19:35:00
2:44 PM,30.2,26.6,86,29.82,4.0,East,19.6,28.8,0.08,Rain,Light Freezing Rain,100,2013-04-14 19:44:00
2:54 PM,30.9,27.0,85,29.87,3.0,East,13.8,24.2,0.10,Rain,Light Freezing Rain,90,2013-04-14 19:54:00
3:15 PM,30.2,28.4,93,29.80,4.0,East,16.1,28.8,0.03,Rain,Light Freezing Rain,100,2013-04-14 20:15:00
3:54 PM,30.9,28.0,89,29.84,9.0,East,18.4,32.2,0.05,,Overcast,100,2013-04-14 20:54:00
4:41 PM,32.0,28.4,87,29.78,5.0,East,18.4,25.3,0.01,Rain,Light Freezing Rain,100,2013-04-14 21:41:00
4:50 PM,32.0,28.4,87,29.77,7.0,East,17.3,27.6,0.01,Rain,Light Freezing Rain,100,2013-04-14 21:50:00
4:54 PM,32.0,28.0,85,29.83,9.0,ESE,12.7,25.3,0.01,Rain,Light Freezing Rain,110,2013-04-14 21:54:00
5:12 PM,32.0,28.4,87,29.77,10.0,East,16.1,25.3,0.01,,Overcast,100,2013-04-14 22:12:00
5:54 PM,32.0,28.9,88,29.82,9.0,East,13.8,25.3,0.01,,Overcast,100,2013-04-14 22:54:00
6:07 PM,32.0,28.4,87,29.75,5.0,East,16.1,24.2,0.00,Rain,Light Freezing Rain,100,2013-04-14 23:07:00
6:54 PM,32.0,28.9,88,29.77,10.0,East,24.2,34.5,0.01,,Overcast,100,2013-04-14 23:54:00
7:54 PM,33.1,30.0,89,29.75,10.0,ESE,19.6,33.4,0.00,Rain,Light Rain,110,2013-04-15 00:54:00
8:04 PM,33.8,28.4,81,29.69,10.0,East,20.7,26.5,0.00,Rain,Light Freezing Rain,100,2013-04-15 01:04:00
8:28 PM,33.8,28.4,81,29.68,10.0,East,18.4,29.9,0.01,Rain,Light Freezing Rain,100,2013-04-15 01:28:00
8:44 PM,33.8,28.4,81,29.68,10.0,ESE,20.7,29.9,0.01,,Overcast,110,2013-04-15 01:44:00
8:54 PM,33.1,28.9,85,29.73,10.0,ESE,17.3,32.2,0.01,Rain,Light Rain,110,2013-04-15 01:54:00
9:54 PM,33.1,28.9,85,29.69,10.0,East,18.4,28.8,0.00,,Overcast,100,2013-04-15 02:54:00
10:08 PM,33.8,28.4,81,29.64,10.0,East,18.4,33.4,N/A,,Overcast,100,2013-04-15 03:08:00
10:54 PM,34.0,30.0,85,29.68,10.0,ESE,16.1,23.0,0.00,Rain,Light Rain,110,2013-04-15 03:54:00
11:19 PM,33.8,30.2,87,29.66,8.0,SE,9.2,16.1,0.01,Rain,Light Rain,130,2013-04-15 04:19:00
11:54 PM,34.0,32.0,92,29.72,4.0,Calm,Calm,-,0.10,Rain,Rain,0,2013-04-15 04:54:00